Location: Albuquerque Trailhead
(34.7934°N, 106.3736°W)
Time: 11:09:14
(UTC+00:00)

Exosat Rocket - Pass Details

Date: 28 October 2021
Orbit: 759 x 2516 km, 72.3° (Epoch: 08 December)

Event Time Altitude Azimuth Distance (km) Brightness Sun altitude
Exits shadow 10:46:23 23° 191° (S) 2,790 6.1 -32.6°
Maximum altitude 10:52:51 82° 106° (ESE) 1,843 5.3 -31.3°
Drops below altitude 10° 11:05:37 10° 21° (NNE) 4,890 7.9 -28.7°
Sets 11:09:37 0° 21° (NNE) 6,045 8.4 -27.9°
